Zurück zum Katalog

NOAA 16 DEB

AktivPO
NORAD 41270·DEBRIS·🇺🇸 United States

Gestartet Sep 21, 2000 von Vandenberg Space Force Base

Loading…

Nächste Überflüge (nächste 24 Stunden)

TLE

AktuellSource: Space-Track

Epoche: Sep 14, 2026, 03:55 UTC

1 41270U 00055FW  26257.16376277  .00005082  00000-0  16644-2 0  9993
2 41270  98.9788  37.4966 0017931 332.5054  27.5182 14.38809563553660

Verfolge NOAA 16 DEB in Echtzeit mit AllMySat

Download on the App Store